Location: Campillo
(40.8621°N, 4.2488°W)
Time: 00:48:08
(UTC+00:00)

SJ-6B - Pass Details

Date: 28 September 2021
Orbit: 508 x 581 km, 97.6° (Epoch: 16 October)

Event Time Altitude Azimuth Distance (km) Brightness Sun altitude
Exits shadow 21:05:46 19° 285° (WNW) 1,396 5.5 -33.9°
Drops below altitude 10° 21:07:56 10° 315° (NW) 1,886 6.3 -34.2°
Sets 21:10:32 0° 332° (NNW) 2,779 7.2 -34.6°
